Probability
0 0 0 0 0 0 0 0 0 0 0 0 0 0 0 0 0 0 0 0 0 0 0 0 0 0 0 0 0 0 0 0 0 0 0 0 0 0 0 0 0 0 0
0 0 0 0 0 0 0 0 0 0 0 0 0 0 0 0 0 0 0 0 0 0 0 0 0 0 0 0 0 0 0 0 0 0 0 0 0 0 0 0 0 0 0
0 0 0 0 0 0 0 0 0 0 0 0 0 0 0 0 0 0 0 0 0 0 0 0 0 0 0 0 0 0 0 0 0 0 0 0 0 0 0 0 0 0 0
0 0 0 0 0 0 0 0 0 0 0 0 0 0 0 0 0 0 0 0 0 0 0 0 0 0 0 0 0 0 0 0 0 0 0 0 0 0 0 0 0 0 0
0 0 0 0 0 0 0 0 0 0 0 0 0 0 0 0 0 0 0 0 0 0 0 0 0 0 0 0 0 0 0 0 0 0 0 0 0 0 0 0 0 0 0
0 0 0 0 0 0 0 0 0 0 0 0 0 0 0 0 0 0 0 0 0 0 0 0 0 0 0 0 0 0 0 0 0 0 0 0 0 0 0 0 0 0 0
0 0 0 0 0 0 0 0 0 0 0 0 0 0 0 0 0 0 0 0 0 0 0 0 0 0 0 0 0 0 0 0 0 0 0 0 0 0 0 0 0 0 0
0 0 0 0 0 0 0 0 0 0 0 0 0 0 0 0 0 0 0 0 0 0 0 0 0 0 0 0 0 0 0 0 0 0 0 0 0 0 0 0 0 0 0
0 0 0 0 0 0 0 0 0 0 0 0 0 0 0 0 0 0 0 0 0 0 0 0 0 0 0 0 0 0 0 0 0 0 0 0 0 0 0 0 0 0 0
0 0 0 0 0 0 0 0 0 0 0 0 0 0 0 0 0 0 0 0 0 0 0 0 0 0 0 0 0 0 0 0 0 0 0 0 0 0 0 0 0 0 0
0 0 0 0 0 0 0 0 0 0 0 0 0 0 0 0 0 0 0 0 0 0 0 0 0 0 0 0 0 0 0 0 0 0 0 0 0 0 0 0 0 0 0
0 0 0 0 0 0 0 0 0 0 0 0 0 0 0 0 0 0 0 0 0 0 0 0 0 0 0 0 0 0 0 0 0 0 0 0 0 0 0 0 0 0 0
0 0 0 0 0 0 0 0 0 0 0 0 0 0 0 0 0 0 0 0 0 0 0 0 0 0 0 0 0 0 0 0 0 0 0 0 0 0 0 0 0 0 0
0 0 0 0 0 0 0 0 0 0 0 0 0 0 0 0 0 0 0 0 0 0 0 0 0 0 0 0 0 0 0 0 0 0 0 0 0 0 0 0 0 0 0
0 0 0 0 0 0 0 0 0 0 0 0 0 0 0 0 0 0 0 0 0 0 0 0 0 0 0 0 0 0 0 0 0 0 0 0 0 0 0 0 0 0 0
0 0 0 0 0 0 0 0 0 0 0 0 0 0 0 0 0 0 0 0 0 0 0 0 0 0 0 0 0 0 0 0 0 0 0 0 0 0 0 0 0 0 0
0 0 0 0 0 0 0 0 0 0 0 0 0 0 0 0 0 0 0 0 0 0 0 0 0 0 0 0 0 0 0 0 0 0 0 0 0 0 0 0 0 0 0
0 0 0 0 0 0 0 0 0 0 0 0 0 0 0 0 0 0 0 0 0 0 0 0 0 0 0 0 0 0 0 0 0 0 0 0 0 0 0 0 0 0 0
0 0 0 0 0 0 0 0 0 0 0 0 0 0 0 0 0 0 0 0 0 0 0 0 0 0 0 0 0 0 0 0 0 0 0 0 0 0 0 0 0 0 0
0 0 0 0 0 0 0 0 0 0 0 0 0 0 0 0 0 0 0 0 0 0 0 0 0 0 0 0 0 0 0 0 0 0 0 0 0 0 0 0 0 0 0
0 0 0 0 0 0 0 0 0 0 0 0 0 0 0 0 0 0 0 0 0 0 0 0 0 0 0 0 0 0 0 0 0 0 0 0 0 0 0 0 0 0 0
0 0 0 0 0 0 0 0 0 0 0 0 0 0 0 0 0 0 0 0 0 0 0 0 0 0 0 0 0 0 0 0 0 0 0 0 0 0 0 0 0 0 0
0 0 0 0 0 0 0 0 0 0 0 0 0 0 0 0 0 0 0 0 0 0 0 0 0 0 0 0 0 0 0 0 0 0 0 0 0 0 0 0 0 0 0
0 0 0 0 0 0 0 0 0 0 0 0 0 0 0 0 0 0 0 0 0 0 0 0 0 0 0 0 0 0 0 0 0 0 0 0 0 0 0 0 0 0 0
0 0 0 0 0 0 0 0 0 0 0 0 0 0 0 0 0 0 0 0 0 0 0 0 0 0 0 0 0 0 0 0 0 0 0 0 0 0 0 0 0 0 0
0 0 0 0 0 0 0 0 0 0 0 0 0 0 0 0 0 0 0 0 0 0 0 0 0 0 0 0 0 0 0 0 0 0 0 0 0 0 0 0 0 0 0
Wind_Speed
8 9 9 8 8 9 8 9 8 7 8 8 8 8 7 7 7 6 6 6 7 5 5 6 5 4 3 3 2 2 2 2 3 1 0 1 1 2 3 4 5 6 5
7 7 7 6 7 7 7 7 7 7 7 7 7 7 7 7 7 7 7 7 7 7 6 6 6 4 4 3 3 3 2 1 2 2 1 1 2 3 4 6 5 5 6
5 6 6 6 7 7 6 6 6 7 7 6 7 7 7 7 6 6 7 6 6 6 6 6 6 6 5 4 3 3 2 1 1 1 1 1 2 3 5 5 5 5 6
5 5 6 6 6 6 5 6 6 6 7 6 6 6 6 6 6 6 6 7 7 6 6 5 6 6 6 6 4 4 3 2 1 1 1 2 2 3 4 5 6 6 6
6 6 5 5 5 5 5 5 5 5 5 6 6 6 6 5 6 8 7 8 8 8 6 5 5 4 5 4 4 4 4 2 2 1 2 2 2 3 4 4 6 7 7
7 6 5 5 5 5 5 5 6 6 6 6 6 6 6 4 9 11 9 8 8 8 7 6 5 5 6 7 6 5 3 3 2 2 2 2 3 4 4 5 6 7 5
6 6 5 5 5 5 5 6 6 6 6 6 6 6 6 8 12 12 10 8 8 7 7 7 5 4 5 5 5 5 3 1 1 2 3 3 4 3 5 6 6 7 7
6 6 6 6 6 5 6 6 6 5 5 5 6 6 6 8 12 12 11 7 7 6 6 6 6 6 5 5 4 3 2 1 1 1 2 2 3 3 4 5 6 7 8
6 6 6 6 6 6 6 6 6 6 5 5 5 6 6 8 11 12 11 6 6 6 5 5 5 6 7 7 5 3 2 1 1 1 2 2 3 4 4 3 4 5 6
6 5 5 6 6 7 7 6 5 5 6 6 5 5 5 6 10 12 10 5 6 5 4 4 4 5 7 7 4 4 3 2 1 0 1 1 1 2 3 2 3 4 4
4 5 5 5 5 6 6 5 6 6 6 6 6 5 4 5 8 10 9 4 5 6 5 4 4 7 8 7 5 3 3 2 1 1 1 1 1 1 1 2 3 3 5
5 5 5 5 5 5 6 6 6 7 7 6 6 5 3 3 5 7 9 7 6 5 4 4 4 8 7 6 4 3 4 3 1 1 1 1 1 2 2 3 4 4 5
5 5 5 5 5 5 6 7 6 6 5 5 5 5 4 3 4 7 8 8 8 4 4 6 6 7 6 4 4 4 3 2 2 2 2 2 1 2 3 3 4 4 6
6 5 5 5 5 5 4 5 5 6 6 5 5 5 4 4 4 4 4 5 6 5 4 5 6 6 4 4 3 3 2 1 2 2 2 1 1 2 2 2 3 4 4
6 5 4 4 4 4 3 3 4 3 4 6 5 6 6 6 7 9 6 5 5 5 6 4 3 3 3 3 3 2 2 2 2 2 1 1 2 2 2 2 2 3 4
5 4 3 3 3 3 4 3 3 2 3 5 5 6 4 6 9 10 10 9 9 10 6 4 5 5 5 4 4 3 3 3 2 2 2 2 2 2 2 2 3 3 4
4 4 3 3 3 3 4 4 3 3 3 4 5 6 6 7 9 10 10 10 10 11 6 5 5 5 5 5 4 4 4 3 3 3 3 2 2 2 3 3 3 3 4
3 3 3 3 3 3 3 3 3 4 3 2 3 5 5 6 7 8 9 8 6 6 5 5 5 5 5 5 4 4 4 3 3 3 3 3 3 3 3 3 3 4 4
2 2 2 2 2 2 2 3 3 3 3 3 2 2 4 5 5 6 6 5 5 6 5 5 5 5 4 4 4 4 4 4 4 4 4 4 3 3 3 3 4 4 4
2 2 1 1 2 2 2 2 3 3 3 3 3 3 3 3 4 4 4 4 5 5 5 5 4 4 4 4 4 4 4 4 5 4 4 4 4 4 4 4 4 4 4
1 1 1 1 1 2 2 2 2 3 3 3 3 3 5 4 4 5 5 5 5 5 5 4 4 4 4 4 4 5 6 5 5 5 4 4 4 4 4 4 4 4 4
1 1 1 1 1 1 1 2 2 3 3 4 3 3 6 3 4 4 4 4 4 4 4 4 4 4 4 5 5 5 5 5 5 5 5 4 4 4 4 4 4 4 4
1 1 1 1 1 1 2 2 2 3 3 3 3 3 4 4 4 5 5 4 3 4 3 4 4 4 4 4 5 5 6 6 5 5 5 5 4 4 4 5 5 5 5
0 0 1 1 1 1 2 2 2 3 3 3 3 4 4 4 4 5 4 4 3 3 3 4 4 6 7 5 4 5 5 5 5 5 7 6 5 4 4 5 5 5 5
0 1 1 1 1 2 2 2 2 3 3 3 4 4 4 4 4 4 4 4 4 4 5 5 4 5 8 9 7 6 7 8 7 5 6 5 6 6 5 6 5 5 5
1 1 1 1 2 2 2 3 3 3 4 4 4 4 4 4 4 4 4 4 4 4 5 5 6 7 8 7 8 9 9 10 10 9 7 6 6 6 6 5 7 6 6
Wind_Direction
202 203 203 205 204 205 205 203 197 190 185 185 183 181 180 180 177 175 176 169 168 167 166 167 165 158 154 156 152 160 180 216 237 225 271 339 301 323 336 335 328 327 327
193 195 197 193 192 196 197 192 183 181 181 179 174 173 172 172 173 170 168 168 167 169 167 161 156 148 150 151 154 161 166 183 224 241 254 290 293 326 329 324 323 319 318
179 184 182 184 186 187 181 174 172 170 168 166 168 169 168 165 164 164 161 160 160 157 154 152 149 149 151 149 150 148 141 132 140 209 263 297 295 324 323 314 316 314 316
172 176 178 179 175 166 159 159 159 158 161 160 159 156 154 150 147 145 143 140 135 130 129 133 142 151 152 150 146 146 141 143 146 206 261 279 293 321 315 320 320 322 318
171 174 174 163 149 144 144 142 138 139 144 143 140 137 137 143 149 148 142 139 134 127 121 121 128 127 133 143 148 150 153 159 169 214 256 279 296 317 320 323 313 317 312
175 172 159 151 144 142 138 133 130 131 134 134 139 144 143 144 151 148 142 139 138 139 136 132 128 133 132 130 130 136 148 163 182 219 253 275 295 305 312 310 312 320 313
172 163 157 152 148 145 138 136 139 140 138 137 141 145 142 146 147 143 140 139 142 145 147 147 143 137 141 138 134 131 124 137 199 233 256 274 291 303 306 302 303 302 295
171 168 162 158 153 146 144 145 141 138 143 142 146 145 138 142 145 143 137 132 132 137 145 150 149 151 157 155 150 148 151 152 172 238 260 282 296 304 299 296 298 294 288
175 174 169 163 157 155 156 151 144 140 138 135 136 137 136 140 149 147 140 130 130 133 136 146 152 156 164 165 157 161 171 181 139 10 325 312 316 324 323 304 302 304 303
178 167 160 160 162 162 157 149 137 135 132 129 125 126 132 138 153 152 146 139 140 141 143 148 157 164 169 172 170 175 193 203 197 237 293 312 329 337 337 312 301 297 300
138 139 144 150 152 149 141 137 134 132 130 128 125 123 130 141 156 159 158 151 155 157 162 166 171 176 178 181 180 184 187 159 170 207 245 261 289 303 316 321 312 295 290
126 131 134 135 136 138 137 136 137 140 138 138 138 138 136 140 156 166 170 167 162 162 168 167 172 178 178 176 171 157 147 141 163 204 234 250 275 294 311 310 304 295 286
118 120 123 124 125 136 144 147 146 150 153 156 159 161 158 155 166 173 176 173 171 163 160 163 165 169 165 171 164 153 146 158 185 216 237 256 292 306 303 298 293 290 283
122 122 125 129 130 134 142 154 161 165 165 164 168 169 166 171 178 175 173 172 171 164 150 146 157 163 158 144 149 163 164 183 216 230 245 266 289 287 288 305 305 312 301
119 121 127 132 137 141 144 159 172 181 184 177 178 175 176 189 193 185 178 180 176 167 146 145 162 172 185 183 181 178 180 183 202 222 232 247 261 275 291 308 301 300 292
126 131 137 140 141 144 145 131 137 154 172 186 184 181 190 192 183 187 189 184 178 168 160 178 189 198 204 204 202 200 201 208 214 219 224 234 248 264 279 286 286 287 291
126 133 137 143 150 156 158 160 152 132 148 173 183 189 191 183 183 186 183 180 181 180 190 197 202 205 208 209 209 210 212 208 208 218 224 230 243 255 265 272 277 284 288
112 125 137 149 159 168 174 176 175 174 174 178 183 187 186 184 186 185 183 179 189 195 208 209 210 212 212 212 211 212 209 201 205 215 219 222 230 244 255 263 268 276 287
106 116 130 143 159 170 176 178 182 186 185 182 176 186 188 186 183 185 183 200 204 208 212 216 216 214 214 214 213 210 209 208 209 212 218 218 220 231 245 253 263 266 271
88 89 108 143 157 167 177 185 189 190 193 197 200 196 176 180 195 199 205 213 217 220 219 220 217 217 212 210 208 205 208 209 208 213 218 218 217 224 235 243 251 261 266
92 104 113 140 169 187 195 201 202 200 205 211 216 218 208 209 215 216 217 220 223 224 224 222 217 215 213 209 209 209 211 214 210 211 214 216 214 220 230 239 246 250 262
86 112 145 177 191 206 219 219 215 215 217 220 225 226 221 223 228 231 232 233 234 234 230 227 225 219 213 209 207 207 211 215 212 208 211 210 212 219 223 231 240 249 253
75 120 159 193 210 206 217 222 222 225 229 230 230 228 226 230 232 236 239 239 236 235 228 225 228 225 219 214 215 213 215 216 212 203 203 208 212 217 221 229 234 243 250
96 177 204 218 225 226 230 236 237 238 238 239 238 238 237 239 242 242 242 241 239 237 228 222 227 230 226 224 223 220 222 221 209 205 205 208 213 218 222 229 236 241 248
219 222 225 229 233 237 240 244 245 245 243 242 243 244 245 247 248 249 246 241 238 238 236 232 228 228 226 225 226 225 225 222 215 203 197 204 212 216 221 228 233 238 241
261 248 246 244 242 241 240 242 245 247 248 249 249 249 248 249 251 251 248 242 239 239 238 234 232 233 233 230 230 228 226 223 216 209 203 203 208 215 214 223 229 235 241